Location: Observatory
(52.1446°N, 0.4624°W)
Time: 05:42:55
(UTC+00:00)

ISS - Pass Details

Date: 07 December 2019
Orbit: 411 x 421 km, 51.6° (Epoch: 15 December)

Event Time Altitude Azimuth Distance (km) Brightness Sun altitude
Rises 18:10:19 0° 282° (WNW) 2,361 1.2 -20.2°
Reaches altitude 10° 18:12:37 10° 270° (W) 1,497 0.2 -20.6°
Maximum altitude 18:15:29 26° 211° (SSW) 856 -1.8 -21.0°
Enters shadow 18:16:40 21° 176° (S) 996 -1.8 -21.2°
